[[{"header":{"parameterUnit":"m.s-1","parameterCategory":2,"la1":30.2991,"la2":30.254,"lo1":-89.0895,"lo2":-89.0444,"dy":0.0017,"dx":0.0017,"nx":28,"ny":28,"refTime":"2023-07-18T21:00:00:Z","depth":"0","parameterNumber":2,"parameterNumberName":"U-component_of_CURRENTS"},"data":[0,0,0,0,0,0,0,0,0,0,0,0,0,0,0,0,0,0,0,0,0,0,0,0,0,0,0,0,0,0,0,0,0,0,0,0,0,0,0,0,0,0,0,0,0,0,0,0,0,0,0,0,0,0,0,0,0,0,0.2123,0.2122,0,0.21,0.21,0.21,0.2061,0.206,0.2058,0.2057,0.2166,0.217,0.2174,0,0,0,0,0,0,0,0,0,0,0,0,0,0.2149,0.2149,0.2123,0.2122,0.2121,0.21,0.21,0.21,0.2061,0.206,0.2058,0.2057,0.2165,0.217,0.2174,0,0,0,0,0,0,0,0,0,0,0,0,0,0.2139,0.2149,0.2123,0.2095,0.2091,0.21,0.21,0.21,0.2062,0.206,0.2058,0.2056,0.2163,0.2169,0.2175,0.2252,0,0,0.2194,0.2197,0,0,0,0,0,0,0,0,0.2139,0.2139,0.21,0.2096,0.2093,0.2076,0.2148,0.2155,0.2062,0.2079,0.2057,0.2055,0.2146,0.2153,0.216,0.2257,0.2262,0.2195,0.2198,0.2201,0.2203,0,0,0,0,0,0,0,0.214,0.2139,0.212,0.2099,0.2095,0.2088,0.2085,0.215,0.2131,0.2078,0.2073,0.2062,0.2145,0.2154,0.2162,0.2263,0.2194,0.22,0.2204,0.2206,0.2409,0.2411,0,0,0,0,0,0,0.2132,0.214,0.2121,0.2119,0.2105,0.2088,0.2085,0.2088,0.2127,0.2128,0.2063,0.206,0.2144,0.2155,0.2166,0.2226,0.2201,0.2207,0.221,0.2407,0.2409,0.2411,0,0,0,0,0,0,0.2133,0.2131,0.2121,0.2123,0.212,0.2089,0.2093,0.2089,0.2081,0.2113,0.2118,0.2057,0.2143,0.2158,0.2204,0.2231,0.2209,0.2215,0.2405,0.2408,0.241,0.2368,0,0,0,0,0,0,0.2134,0.2132,0.2155,0.2123,0.212,0.2125,0.2094,0.2089,0.2075,0.207,0.2112,0.2119,0.2143,0.2195,0.2211,0.2239,0.222,0.2403,0.2407,0.241,0.2367,0.2368,0.237,0,0,0,0,0,0.2136,0.2173,0.2157,0.2154,0.2145,0.2125,0.2125,0.2099,0.2076,0.2084,0.2098,0.2117,0.2227,0.2201,0.2219,0.225,0.2402,0.2406,0.2409,0.2366,0.2368,0.237,0,0,0,0,0,0,0.223,0.217,0.2152,0.218,0.215,0.2116,0.2128,0.2099,0.2116,0.2113,0.2135,0.2146,0.2199,0.2238,0.2209,0.2321,0.2322,0.2329,0.2283,0.2285,0.2286,0.2266,0.2225,0,0,0,0,0,0.2252,0.2246,0.2196,0.2222,0.2202,0.2163,0.2157,0.213,0.2125,0.2127,0.2152,0.2192,0.2236,0.2265,0.2315,0.238,0.2394,0.2416,0.2418,0.2418,0.2417,0.2455,0.2458,0.2424,0.2424,0.2424,0,0,0.2296,0.2265,0.2265,0.2237,0.2213,0.219,0.2156,0.2141,0.213,0.2145,0.2167,0.22,0.2253,0.231,0.234,0.2342,0.2434,0.2423,0.2423,0.2421,0.2459,0.2462,0.2465,0.2426,0.2426,0.2426,0,0,0.2335,0.2348,0.2323,0.2301,0.225,0.2229,0.2217,0.2178,0.217,0.2188,0.2195,0.2233,0.2307,0.234,0.2368,0.2418,0.2436,0.2446,0.2441,0.2478,0.248,0.2482,0.2482,0.2485,0.2451,0.245,0.245,0,0.2378,0.2353,0.2323,0.2291,0.2276,0.2239,0.2211,0.2211,0.2197,0.2197,0.2193,0.2274,0.232,0.2373,0.2385,0.2419,0.2427,0.2421,0.2475,0.2478,0.2481,0.2481,0.2484,0.2449,0.2449,0.2449,0.2449,0,0.2373,0.2363,0.2357,0.2295,0.2287,0.2271,0.2239,0.2241,0.2228,0.2218,0.2256,0.2305,0.2346,0.2378,0.2395,0.2448,0.2441,0.2463,0.2458,0.2481,0.2481,0.2484,0.2447,0.2447,0.2448,0.2448,0,0,0.2404,0.2353,0.2344,0.2314,0.2285,0.2265,0.2269,0.2246,0.2235,0.2256,0.2252,0.233,0.2339,0.2373,0.2407,0.2444,0.2468,0.2459,0.2462,0.2435,0.2518,0.2458,0.2456,0.2492,0.2493,0.2494,0.25,0,0.2387,0.2334,0.2316,0.2285,0.2256,0.2247,0.2249,0.224,0.2242,0.2246,0.2287,0.2312,0.2343,0.2357,0.24,0.2451,0.248,0.2462,0.2522,0.2523,0.2447,0.246,0.2307,0.2295,0.2504,0.2505,0.2505,0,0.2352,0.2324,0.2283,0.2253,0.2237,0.2227,0.2213,0.2207,0.2221,0.2227,0.2256,0.2279,0.2333,0.2357,0.2442,0.2424,0.2469,0.2506,0.2508,0.247,0.2471,0.2315,0.2295,0.218,0.2512,0.2511,0.2511,0,0.2339,0.2294,0.2262,0.2255,0.2223,0.2209,0.2197,0.22,0.2187,0.2212,0.2206,0.227,0.2288,0.2363,0.2429,0.2438,0.2507,0.2535,0.2519,0.2514,0.2406,0.2389,0.2262,0.2599,0.2599,0.2599,0.2599,0,0.2311,0.2279,0.2253,0.2232,0.2198,0.219,0.2158,0.2158,0.2159,0.2149,0.219,0.2197,0.2292,0.2334,0.2412,0.2459,0.2495,0.2511,0.2517,0.2386,0.2368,0.2283,0.2271,0.2599,0.2599,0.2599,0.2599,0,0.227,0.2261,0.2218,0.2191,0.2181,0.2152,0.2115,0.2097,0.2106,0.2094,0.2098,0.2138,0.2192,0.2267,0.2377,0.2415,0.2399,0.2499,0.2315,0.2299,0.2174,0.2167,0.2055,0.2018,0.2476,0.2475,0.2474,0,0.2223,0.2204,0.2177,0.2156,0.2134,0.2098,0.2073,0.207,0.2057,0.2061,0.2055,0.2086,0.2121,0.2218,0.2282,0.2365,0.2327,0.2267,0.2274,0.2131,0.2129,0.2086,0.2062,0.2105,0.2101,0.2098,0.2095,0,0.2147,0.2153,0.2129,0.2099,0.207,0.2029,0.2,0.1987,0.199,0.1985,0.1997,0.2022,0.2075,0.2081,0.2152,0.2189,0.2109,0.2201,0.2106,0.1866,0.1759,0.1737,0.212,0.2066,0.2069,0.2071,0.2072,0.2073,0.2092,0.2074,0.2069,0.2036,0.2005,0.1975,0.1936,0.1928,0.191,0.1889,0.1937,0.1924,0.1902,0.1979,0.1981,0.1824,0.1946,0.177,0.1785,0.1761,0.1683,0.1984,0.1912,0.1914,0.1915,0.1917,0.1918,0,0.2037,0.2037,0.2004,0.1975,0.1932,0.1933,0.1893,0.185,0.1831,0.1815,0.1817,0.1733,0.1665,0.1613,0.1492,0.1417,0.1382,0.135,0.1234,0.1249,0.1536,0.1474,0.1238,0.1238,0.1238,0.1238,0.1238,0.1238,0.2011,0.1992,0.199,0.1925,0.1894,0.1814,0.1789,0.1736,0.1699,0.1598,0.1524,0.1517,0.1414,0.1217,0.1021,0.0995,0.0943,0.0877,0.0963,0.1118,0.1157,0.1195,0.1128,0.0824,0.0823,0.0581,0.0578,0.0577]},{"header":{"parameterUnit":"m.s-1","parameterCategory":2,"la1":30.2991,"la2":30.254,"lo1":-89.0895,"lo2":-89.0444,"dy":0.0017,"dx":0.0017,"nx":28,"ny":28,"refTime":"2023-07-18T21:00:00:Z","depth":"0","parameterNumber":3,"parameterNumberName":"V-component_of_CURRENTS"},"data":[0,0,0,0,0,0,0,0,0,0,0,0,0,0,0,0,0,0,0,0,0,0,0,0,0,0,0,0,0,0,0,0,0,0,0,0,0,0,0,0,0,0,0,0,0,0,0,0,0,0,0,0,0,0,0,0,0,0,-0.0314,-0.0314,0,-0.0234,-0.0233,-0.0231,-0.0206,-0.0207,-0.0207,-0.0208,0.0009,0.0015,0.0021,0,0,0,0,0,0,0,0,0,0,0,0,0,-0.0319,-0.0319,-0.0314,-0.0313,-0.0313,-0.0234,-0.0233,-0.0231,-0.0206,-0.0207,-0.0208,-0.0208,0.0007,0.0014,0.0022,0,0,0,0,0,0,0,0,0,0,0,0,0,-0.0283,-0.032,-0.0314,-0.0293,-0.029,-0.0234,-0.0232,-0.0231,-0.0206,-0.0207,-0.0208,-0.0209,0.0004,0.0014,0.0023,0.0101,0,0,0.0052,0.0056,0,0,0,0,0,0,0,0,-0.0285,-0.0283,-0.0297,-0.0294,-0.0291,-0.0233,-0.0155,-0.0114,-0.0206,-0.0235,-0.0208,-0.0209,-0.006,-0.0046,-0.0027,0.0111,0.012,0.0053,0.0059,0.0063,0.0066,0,0,0,0,0,0,0,-0.0288,-0.0285,-0.028,-0.0296,-0.0292,-0.0243,-0.024,-0.0147,-0.0139,-0.0232,-0.0231,-0.0226,-0.0058,-0.0036,-0.0021,0.0123,0.0053,0.0061,0.0067,0.0071,0.0369,0.0371,0,0,0,0,0,0,-0.0309,-0.0288,-0.0282,-0.0277,-0.0294,-0.0243,-0.024,-0.0249,-0.0143,-0.0129,-0.0226,-0.0225,-0.0052,-0.0032,-0.0013,0.0106,0.0063,0.0072,0.0077,0.0367,0.0369,0.0372,0,0,0,0,0,0,-0.031,-0.031,-0.0285,-0.0282,-0.0276,-0.0244,-0.0253,-0.0247,-0.0228,-0.0139,-0.0123,-0.0215,-0.0052,-0.0026,0.0081,0.0114,0.0076,0.0085,0.0364,0.0368,0.0371,0.0332,0,0,0,0,0,0,-0.0311,-0.0311,-0.0325,-0.0284,-0.0277,-0.0246,-0.0252,-0.0245,-0.0225,-0.0224,-0.0124,-0.0105,-0.0051,0.0067,0.0091,0.0126,0.0092,0.0361,0.0366,0.037,0.0331,0.0334,0.0337,0,0,0,0,0,-0.0311,-0.0323,-0.0327,-0.0326,-0.0299,-0.0246,-0.0236,-0.0214,-0.0224,-0.0203,-0.0136,-0.0109,0.011,0.0077,0.0104,0.0143,0.0359,0.0364,0.0369,0.033,0.0333,0.0336,0,0,0,0,0,0,-0.0331,-0.0321,-0.0324,-0.0334,-0.0293,-0.0243,-0.0231,-0.0214,-0.0148,-0.0147,-0.0073,-0.0047,0.0058,0.0113,0.0074,0.0243,0.0237,0.0248,0.0198,0.0202,0.0205,0.0186,0.01,0,0,0,0,0,-0.0345,-0.0348,-0.0321,-0.0321,-0.0312,-0.0273,-0.0253,-0.023,-0.017,-0.0145,-0.0069,0.0016,0.0103,0.0158,0.0246,0.0346,0.0347,0.0389,0.0391,0.0393,0.0399,0.0412,0.0415,0.0388,0.0388,0.0388,0,0,-0.0348,-0.0344,-0.0346,-0.0325,-0.03,-0.0257,-0.0262,-0.0226,-0.0174,-0.0124,-0.0027,0.0034,0.0132,0.0237,0.0289,0.0286,0.0401,0.04,0.04,0.0405,0.0417,0.0419,0.0421,0.0391,0.0391,0.039,0,0,-0.0343,-0.036,-0.0358,-0.0322,-0.0287,-0.025,-0.0242,-0.0183,-0.015,-0.005,-0.0007,0.0067,0.0216,0.0281,0.0333,0.0411,0.0413,0.0444,0.0448,0.0461,0.0462,0.0463,0.0447,0.0447,0.0446,0.0446,0.0446,0,-0.0353,-0.0342,-0.0341,-0.0315,-0.0278,-0.0248,-0.0206,-0.0157,-0.006,-0.0024,-0.0017,0.0163,0.0237,0.0347,0.0371,0.0416,0.0409,0.0418,0.0459,0.046,0.0462,0.0446,0.0446,0.0445,0.0445,0.0445,0.0445,0,-0.0331,-0.0315,-0.0304,-0.0263,-0.0222,-0.0176,-0.0116,-0.0064,-0.0024,0.0026,0.013,0.0217,0.0312,0.0351,0.0392,0.0454,0.0439,0.045,0.0433,0.0461,0.0444,0.0445,0.0443,0.0444,0.0444,0.0444,0,0,-0.0361,-0.0305,-0.0298,-0.0262,-0.0188,-0.0147,-0.0069,0.0011,0.0051,0.0137,0.0194,0.0326,0.0333,0.0393,0.0438,0.0459,0.0457,0.0457,0.0458,0.0412,0.0457,0.0454,0.0454,0.0462,0.0462,0.0463,0.043,0,-0.0338,-0.0283,-0.0254,-0.0168,-0.0127,-0.0071,-0.0001,0.0074,0.0133,0.0199,0.026,0.0338,0.0361,0.0391,0.0416,0.046,0.0462,0.0464,0.0465,0.0464,0.0434,0.0457,0.0499,0.0476,0.0431,0.0431,0.0431,0,-0.0317,-0.028,-0.0209,-0.012,-0.0101,-0.0045,0.0052,0.0119,0.0202,0.024,0.0297,0.0338,0.0403,0.04,0.0453,0.0447,0.0448,0.0463,0.0462,0.0476,0.0465,0.0451,0.0479,0.0493,0.0433,0.0433,0.0433,0,-0.0316,-0.0239,-0.0181,-0.0146,-0.0049,-0.001,0.0041,0.0128,0.0178,0.025,0.0278,0.0348,0.0382,0.0402,0.0439,0.0439,0.047,0.0472,0.0463,0.0461,0.051,0.0512,0.0532,0.0484,0.0484,0.0484,0.0484,0,-0.0284,-0.0232,-0.0182,-0.0141,-0.0074,-0.0016,0.0055,0.011,0.0176,0.0234,0.0283,0.0332,0.0382,0.0413,0.0429,0.045,0.0456,0.0466,0.0461,0.0498,0.0499,0.0525,0.0523,0.0483,0.0483,0.0483,0.0483,0,-0.0262,-0.0232,-0.0163,-0.009,-0.0067,-0.0021,0.0056,0.0102,0.0154,0.0223,0.0241,0.0317,0.036,0.0395,0.0433,0.044,0.048,0.0457,0.0484,0.0484,0.0491,0.0486,0.0492,0.0555,0.044,0.044,0.044,0,-0.023,-0.0198,-0.014,-0.0112,-0.0076,-0.0015,0.0028,0.0091,0.0136,0.0223,0.0254,0.0309,0.0369,0.0411,0.0447,0.0461,0.0478,0.048,0.0501,0.0501,0.0492,0.0482,0.0535,0.0539,0.054,0.054,0.0541,0,-0.0165,-0.0163,-0.012,-0.0085,-0.0044,0.0009,0.0066,0.0094,0.0168,0.0222,0.0293,0.034,0.0397,0.0465,0.048,0.0488,0.0519,0.049,0.0501,0.0582,0.0565,0.062,0.0524,0.0546,0.0545,0.0545,0.0545,0.0545,-0.0123,-0.0097,-0.0073,-0.0035,-0.0002,0.0038,0.0083,0.0134,0.0201,0.0292,0.0322,0.0417,0.0487,0.0538,0.0531,0.0555,0.0554,0.0571,0.0563,0.0551,0.0627,0.0525,0.0539,0.0538,0.0538,0.0537,0.0537,0,-0.0066,-0.005,-0.0017,0.0019,0.0048,0.0059,0.012,0.0162,0.0236,0.0318,0.039,0.0522,0.0587,0.0614,0.0639,0.064,0.0667,0.0637,0.0653,0.0708,0.063,0.0652,0.0679,0.0679,0.0679,0.0679,0.0679,0.0679,-0.003,0.0003,0.0009,0.0062,0.0083,0.013,0.0165,0.0212,0.0274,0.0386,0.0487,0.0563,0.0637,0.0624,0.0651,0.0667,0.0727,0.0701,0.0732,0.068,0.0674,0.0669,0.069,0.0726,0.0726,0.0859,0.0859,0.086]}],[{"header":{"parameterUnit":"m.s-1","parameterCategory":2,"la1":30.2991,"la2":30.254,"lo1":-89.0895,"lo2":-89.0444,"dy":0.0017,"dx":0.0017,"nx":28,"ny":28,"refTime":"2023-07-18T21:00:00:Z","depth":"2","parameterNumber":2,"parameterNumberName":"U-component_of_CURRENTS"},"data":[0,0,0,0,0,0,0,0,0,0,0,0,0,0,0,0,0,0,0,0,0,0,0,0,0,0,0,0,0,0,0,0,0,0,0,0,0,0,0,0,0,0,0,0,0,0,0,0,0,0,0,0,0,0,0,0,0,0,0.0286,0.029,0,0.0499,0.0499,0.05,0.0507,0.0507,0.0507,0.0507,0.0393,0.0391,0.0388,0,0,0,0,0,0,0,0,0,0,0,0,0,0.0222,0.0218,0.0286,0.0291,0.0296,0.0499,0.0499,0.05,0.0507,0.0507,0.0507,0.0507,0.0394,0.0391,0.0387,0,0,0,0,0,0,0,0,0,0,0,0,0,0.0297,0.0217,0.0285,0.0344,0.0353,0.0499,0.0499,0.05,0.0507,0.0507,0.0507,0.0507,0.0395,0.0391,0.0387,0.0364,0,0,0.0374,0.0372,0,0,0,0,0,0,0,0,0.0292,0.0296,0.033,0.034,0.0351,0.05,0.0437,0.0447,0.0507,0.0421,0.0507,0.0507,0.0416,0.041,0.0417,0.0358,0.0354,0.0373,0.0371,0.0369,0.0367,0,0,0,0,0,0,0,0.0286,0.0289,0.0343,0.0336,0.0349,0.0478,0.0481,0.044,0.039,0.0428,0.0436,0.0502,0.0416,0.0422,0.0414,0.0352,0.0373,0.0369,0.0367,0.0365,0.0484,0.0489,0,0,0,0,0,0,0.0296,0.0281,0.0337,0.0352,0.0351,0.0479,0.0483,0.043,0.0398,0.0403,0.0502,0.0502,0.0429,0.0419,0.041,0.0499,0.0369,0.0365,0.0362,0.0478,0.0485,0.0491,0,0,0,0,0,0,0.0291,0.0293,0.0329,0.0352,0.0368,0.048,0.0422,0.0436,0.0479,0.0463,0.0456,0.054,0.0429,0.0416,0.0498,0.049,0.0363,0.0359,0.0471,0.048,0.0488,0.06,0,0,0,0,0,0,0.0285,0.0286,0.0271,0.0347,0.0368,0.0367,0.0426,0.0441,0.0531,0.0533,0.0492,0.048,0.0428,0.0506,0.0493,0.0481,0.0355,0.0464,0.0475,0.0485,0.0589,0.0611,0.063,0,0,0,0,0,0.028,0.0251,0.0265,0.0278,0.033,0.0369,0.0384,0.0454,0.0534,0.0501,0.0607,0.0483,0.0563,0.0509,0.0493,0.0478,0.0459,0.0472,0.0485,0.0579,0.0607,0.063,0,0,0,0,0,0,0.0259,0.0255,0.027,0.0251,0.0293,0.0378,0.0473,0.0483,0.0542,0.0628,0.0571,0.0566,0.0621,0.0578,0.052,0.0562,0.0482,0.0492,0.056,0.0584,0.0605,0.0595,0.0352,0,0,0,0,0,0.0241,0.0179,0.0233,0.0224,0.0305,0.0396,0.0451,0.0481,0.0562,0.0591,0.0555,0.0603,0.0657,0.0651,0.0653,0.0678,0.066,0.0665,0.0686,0.0703,0.0697,0.0743,0.0765,0.0534,0.0534,0.0534,0,0,0.0256,0.0244,0.0226,0.0215,0.0334,0.0407,0.0423,0.0543,0.0577,0.0571,0.0635,0.0662,0.0693,0.0742,0.0755,0.0701,0.0771,0.0719,0.0732,0.0717,0.0758,0.078,0.0799,0.0543,0.0541,0.054,0,0,0.0325,0.0265,0.0307,0.0309,0.0446,0.0475,0.051,0.0591,0.0621,0.07,0.0742,0.08,0.0817,0.0825,0.0855,0.0997,0.089,0.0986,0.105,0.1097,0.1114,0.1128,0.1157,0.1174,0.0981,0.0981,0.0981,0,0.0382,0.0352,0.0335,0.0398,0.0453,0.0511,0.0613,0.0638,0.0688,0.0726,0.0742,0.088,0.086,0.097,0.1029,0.1024,0.105,0.0938,0.1116,0.113,0.1143,0.1169,0.1185,0.0988,0.0987,0.0986,0.0986,0,0.0496,0.0466,0.0535,0.0574,0.0615,0.0687,0.0755,0.076,0.0833,0.0843,0.0957,0.1004,0.1069,0.1068,0.11,0.1182,0.1173,0.114,0.1029,0.1171,0.1192,0.1207,0.0998,0.0995,0.0993,0.0992,0,0,0.0598,0.0608,0.0621,0.0639,0.0694,0.0736,0.0827,0.0885,0.0957,0.0988,0.1079,0.1181,0.1197,0.1238,0.1253,0.1282,0.139,0.1261,0.1261,0.125,0.1509,0.1442,0.145,0.1401,0.1404,0.1406,0.1492,0,0.0715,0.0787,0.0772,0.0841,0.09,0.0905,0.0958,0.1001,0.1052,0.11,0.1187,0.1284,0.1271,0.1341,0.1379,0.1383,0.1434,0.137,0.1407,0.1408,0.1297,0.1466,0.127,0.1326,0.1506,0.1508,0.151,0,0.084,0.0817,0.0937,0.0907,0.0971,0.1033,0.1113,0.1151,0.1222,0.127,0.137,0.1416,0.15,0.148,0.1562,0.1535,0.1549,0.1541,0.1544,0.1442,0.1368,0.1215,0.1344,0.1533,0.1531,0.1529,0.1528,0,0.0878,0.0917,0.0993,0.098,0.1009,0.1102,0.1155,0.1233,0.1275,0.1389,0.1433,0.1549,0.1609,0.1665,0.1651,0.1636,0.1716,0.168,0.1639,0.1633,0.1448,0.1421,0.1763,0.1763,0.1763,0.1762,0.1762,0,0.0916,0.095,0.1025,0.1021,0.113,0.1173,0.1317,0.1348,0.1434,0.1477,0.1547,0.1596,0.1661,0.1697,0.1707,0.1715,0.177,0.1682,0.1666,0.1488,0.1465,0.1615,0.1596,0.1766,0.1765,0.1764,0.1764,0,0.0956,0.0989,0.1047,0.1113,0.1154,0.1263,0.139,0.1435,0.1516,0.1577,0.1619,0.1649,0.17,0.1739,0.179,0.1757,0.178,0.1769,0.1549,0.1507,0.1659,0.1646,0.1762,0.1761,0.176,0.1759,0.1758,0,0.0985,0.1014,0.1123,0.1177,0.1243,0.1372,0.1427,0.1498,0.1518,0.1581,0.1583,0.1661,0.1673,0.1726,0.1685,0.1718,0.178,0.1557,0.1488,0.1694,0.1667,0.1656,0.1645,0.13,0.1295,0.1292,0.1289,0,0.0977,0.1072,0.1104,0.1223,0.1327,0.1384,0.147,0.1489,0.153,0.1568,0.1581,0.1612,0.161,0.1509,0.1523,0.1522,0.1539,0.1484,0.1776,0.1325,0.1263,0.1234,0.1238,0.1256,0.1259,0.1262,0.1264,0.1265,0.1003,0.1047,0.1127,0.1264,0.1351,0.14,0.1427,0.144,0.1472,0.1459,0.1499,0.1434,0.1366,0.1272,0.1252,0.1244,0.1367,0.1293,0.1302,0.1316,0.1242,0.1181,0.1145,0.1147,0.1149,0.1151,0.1153,0,0.0984,0.1047,0.1132,0.1267,0.1344,0.1414,0.1418,0.1377,0.1372,0.1343,0.1339,0.109,0.0994,0.0981,0.0875,0.0888,0.088,0.0891,0.0829,0.0861,0.089,0.0792,0.0577,0.0576,0.0575,0.0573,0,0,0.0972,0.1017,0.106,0.1204,0.1324,0.134,0.1334,0.1261,0.1195,0.1084,0.098,0.096,0.0912,0.0692,0.0682,0.0613,0.0758,0.0611,0.1065,0.1024,0.1051,0.1103,0.0987,0,0,0,0,0]},{"header":{"parameterUnit":"m.s-1","parameterCategory":2,"la1":30.2991,"la2":30.254,"lo1":-89.0895,"lo2":-89.0444,"dy":0.0017,"dx":0.0017,"nx":28,"ny":28,"refTime":"2023-07-18T21:00:00:Z","depth":"2","parameterNumber":3,"parameterNumberName":"V-component_of_CURRENTS"},"data":[0,0,0,0,0,0,0,0,0,0,0,0,0,0,0,0,0,0,0,0,0,0,0,0,0,0,0,0,0,0,0,0,0,0,0,0,0,0,0,0,0,0,0,0,0,0,0,0,0,0,0,0,0,0,0,0,0,0,-0.0683,-0.0682,0,-0.0642,-0.0642,-0.0642,-0.0665,-0.0665,-0.0666,-0.0667,-0.055,-0.0547,-0.0543,0,0,0,0,0,0,0,0,0,0,0,0,0,-0.0742,-0.0742,-0.0683,-0.0682,-0.0681,-0.0642,-0.0642,-0.0642,-0.0665,-0.0665,-0.0666,-0.0667,-0.0552,-0.0547,-0.0543,0,0,0,0,0,0,0,0,0,0,0,0,0,-0.0715,-0.0741,-0.0683,-0.0684,-0.0683,-0.0642,-0.0642,-0.0642,-0.0664,-0.0665,-0.0666,-0.0667,-0.0553,-0.0548,-0.0542,-0.0487,0,0,-0.0525,-0.0523,0,0,0,0,0,0,0,0,-0.0717,-0.0714,-0.0685,-0.0684,-0.0683,-0.0655,-0.062,-0.0585,-0.0664,-0.0677,-0.0667,-0.0668,-0.0574,-0.0567,-0.0565,-0.0482,-0.0477,-0.0525,-0.0521,-0.0519,-0.0517,0,0,0,0,0,0,0,-0.0719,-0.0715,-0.0672,-0.0684,-0.0683,-0.0673,-0.0671,-0.0614,-0.0623,-0.0676,-0.0676,-0.0663,-0.0574,-0.0571,-0.0562,-0.0475,-0.0525,-0.052,-0.0516,-0.0514,-0.0371,-0.037,0,0,0,0,0,0,-0.0714,-0.0717,-0.0673,-0.067,-0.0697,-0.0671,-0.0669,-0.0667,-0.0625,-0.0619,-0.0663,-0.0664,-0.058,-0.0569,-0.0558,-0.0495,-0.0519,-0.0514,-0.051,-0.0371,-0.037,-0.037,0,0,0,0,0,0,-0.0716,-0.0711,-0.0675,-0.0688,-0.0682,-0.0668,-0.0666,-0.0666,-0.0674,-0.0615,-0.0609,-0.0673,-0.058,-0.0566,-0.0513,-0.049,-0.0511,-0.0506,-0.0372,-0.0371,-0.037,-0.0364,0,0,0,0,0,0,-0.0718,-0.0713,-0.073,-0.0688,-0.0681,-0.0665,-0.0665,-0.0664,-0.0661,-0.0664,-0.062,-0.0611,-0.058,-0.0522,-0.0508,-0.0483,-0.0502,-0.0372,-0.0371,-0.037,-0.0365,-0.0364,-0.0362,0,0,0,0,0,-0.0721,-0.0717,-0.0731,-0.0726,-0.0699,-0.0665,-0.0662,-0.0658,-0.0661,-0.067,-0.0631,-0.0613,-0.0507,-0.0516,-0.05,-0.0473,-0.0373,-0.0371,-0.037,-0.0366,-0.0364,-0.0362,0,0,0,0,0,0,-0.0769,-0.0717,-0.0732,-0.0722,-0.0709,-0.0668,-0.0666,-0.0662,-0.0641,-0.0642,-0.0596,-0.0582,-0.0531,-0.0504,-0.0516,-0.0433,-0.044,-0.0436,-0.0442,-0.044,-0.0439,-0.042,-0.0497,0,0,0,0,0,-0.0783,-0.0768,-0.0731,-0.0737,-0.0719,-0.07,-0.0691,-0.0687,-0.0651,-0.0646,-0.0614,-0.0569,-0.0511,-0.048,-0.0439,-0.038,-0.0361,-0.0358,-0.0357,-0.0355,-0.0331,-0.0299,-0.0292,-0.0367,-0.0367,-0.0367,0,0,-0.0809,-0.0778,-0.0776,-0.0746,-0.0731,-0.0697,-0.0699,-0.0681,-0.0652,-0.0629,-0.059,-0.0564,-0.0497,-0.0442,-0.0416,-0.0415,-0.0327,-0.0354,-0.0353,-0.0329,-0.0297,-0.029,-0.0283,-0.0366,-0.0366,-0.0366,0,0,-0.0815,-0.0818,-0.0793,-0.0771,-0.074,-0.0715,-0.0711,-0.0677,-0.0663,-0.0612,-0.0591,-0.055,-0.0471,-0.0423,-0.038,-0.0341,-0.0326,-0.0343,-0.0306,-0.0276,-0.0269,-0.0262,-0.0242,-0.0234,-0.0335,-0.0335,-0.0335,0,-0.0847,-0.0814,-0.0789,-0.0751,-0.0724,-0.0718,-0.0682,-0.0657,-0.0619,-0.059,-0.0599,-0.0482,-0.0448,-0.0345,-0.0342,-0.0333,-0.0325,-0.0317,-0.0273,-0.0266,-0.026,-0.024,-0.0231,-0.0335,-0.0335,-0.0335,-0.0335,0,-0.082,-0.0802,-0.078,-0.0727,-0.0701,-0.0674,-0.0621,-0.0608,-0.0585,-0.0554,-0.0475,-0.0426,-0.035,-0.0345,-0.0322,-0.0257,-0.027,-0.0282,-0.0277,-0.0252,-0.0233,-0.0224,-0.0334,-0.0334,-0.0335,-0.0335,0,0,-0.0847,-0.0774,-0.0768,-0.074,-0.0682,-0.065,-0.0595,-0.0531,-0.0487,-0.0453,-0.0376,-0.0297,-0.0288,-0.024,-0.022,-0.0196,-0.0161,-0.0223,-0.0222,-0.0201,-0.0104,-0.007,-0.0058,-0.0175,-0.0173,-0.0172,-0.0114,0,-0.0833,-0.0769,-0.0723,-0.0666,-0.0624,-0.0586,-0.0527,-0.0477,-0.0431,-0.0368,-0.0302,-0.0227,-0.0237,-0.0201,-0.0175,-0.0165,-0.0134,-0.0175,-0.0131,-0.0129,-0.0101,-0.0044,-0.0053,0.0001,-0.0105,-0.0104,-0.0103,0,-0.0799,-0.0762,-0.0706,-0.0618,-0.0592,-0.055,-0.0458,-0.0403,-0.0315,-0.0277,-0.0201,-0.0162,-0.0086,-0.0113,-0.0051,-0.0083,-0.0082,-0.0084,-0.0082,-0.0037,-0.0077,-0.0038,0.0022,-0.0087,-0.0089,-0.009,-0.0091,0,-0.0815,-0.0732,-0.0692,-0.0668,-0.0579,-0.0529,-0.0466,-0.038,-0.0313,-0.0217,-0.0171,-0.0084,-0.0031,-0.0009,0.0005,-0.0029,0.0053,0.0008,0.005,0.0051,0.0064,0.0064,0.0063,0.0063,0.0063,0.0063,0.0062,0,-0.0796,-0.0755,-0.0696,-0.0676,-0.0589,-0.0524,-0.0418,-0.0356,-0.0258,-0.0176,-0.0119,-0.0044,-0.0009,0.0043,0.0039,0.0091,0.0091,0.0087,0.0084,0.0064,0.0063,0.0002,-0.0006,0.0065,0.0064,0.0064,0.0063,0,-0.08,-0.0775,-0.0711,-0.0631,-0.0594,-0.0523,-0.0374,-0.031,-0.0229,-0.0122,-0.0086,-0.0006,0.0064,0.0107,0.0145,0.0144,0.0179,0.0195,0.017,0.0165,0.014,0.0132,0.0247,0.0249,0.0251,0.0252,0.0254,0,-0.0787,-0.0772,-0.069,-0.0633,-0.0584,-0.0473,-0.0402,-0.03,-0.0234,-0.0098,-0.0056,0.0047,0.0139,0.0229,0.0251,0.0299,0.0254,0.0292,0.0244,0.0182,0.0167,0.0156,0.0145,0.0248,0.0249,0.025,0.0251,0,-0.0758,-0.0746,-0.0704,-0.0603,-0.0521,-0.0425,-0.0315,-0.0261,-0.0155,-0.0067,0.0038,0.0125,0.0228,0.0293,0.0362,0.0368,0.0286,0.0312,0.0278,0.0207,0.0189,0.0171,0.016,0.0258,0.0258,0.0257,0.0257,0.0256,-0.0729,-0.0695,-0.0648,-0.0536,-0.0452,-0.0365,-0.0265,-0.0182,-0.0067,0.0094,0.0123,0.0277,0.0307,0.0449,0.0424,0.038,0.0387,0.0342,0.0337,0.0331,0.0325,0.0312,0.0403,0.0403,0.0403,0.0403,0.0403,0,-0.0672,-0.0641,-0.056,-0.044,-0.0341,-0.0307,-0.0199,-0.0101,0.0044,0.0153,0.0293,0.0382,0.0471,0.0466,0.0416,0.0395,0.0355,0.0362,0.0298,0.0293,0.0288,0.0275,0.0342,0.0341,0.0341,0.034,0,0,-0.0631,-0.0568,-0.0534,-0.0357,-0.0266,-0.013,-0.0058,0.0046,0.015,0.0301,0.0403,0.0577,0.0543,0.0502,0.0448,0.0375,0.0332,0.0363,0.0421,0.0347,0.0341,0.0295,0.0274,0,0,0,0,0]}],[{"header":{"parameterUnit":"m.s-1","parameterCategory":2,"la1":30.2991,"la2":30.254,"lo1":-89.0895,"lo2":-89.0444,"dy":0.0017,"dx":0.0017,"nx":28,"ny":28,"refTime":"2023-07-18T21:00:00:Z","depth":"4","parameterNumber":2,"parameterNumberName":"U-component_of_CURRENTS"},"data":[0,0,0,0,0,0,0,0,0,0,0,0,0,0,0,0,0,0,0,0,0,0,0,0,0,0,0,0,0,0,0,0,0,0,0,0,0,0,0,0,0,0,0,0,0,0,0,0,0,0,0,0,0,0,0,0,0,0,-0.0543,-0.0543,0,-0.0556,-0.0556,-0.0557,-0.0578,-0.0578,-0.0579,-0.0579,-0.0658,-0.066,-0.0661,0,0,0,0,0,0,0,0,0,0,0,0,0,-0.0543,-0.0543,-0.0543,-0.0543,-0.0543,-0.0556,-0.0556,-0.0557,-0.0578,-0.0578,-0.0579,-0.0579,-0.0657,-0.0659,-0.0662,0,0,0,0,0,0,0,0,0,0,0,0,0,-0.0549,-0.0543,-0.0543,-0.0555,-0.0556,-0.0556,-0.0557,-0.0557,-0.0578,-0.0578,-0.0579,-0.0579,-0.0657,-0.0659,-0.0662,-0.0669,0,0,-0.067,-0.0671,0,0,0,0,0,0,0,0,-0.0549,-0.0549,-0.0553,-0.0554,-0.0555,-0.0565,-0.0586,-0.0597,-0.0578,-0.057,-0.0579,-0.058,-0.0632,-0.0637,-0.0638,-0.0673,-0.0676,-0.067,-0.0672,-0.0673,-0.0674,0,0,0,0,0,0,0,-0.0548,-0.0549,-0.0549,-0.0553,-0.0554,-0.0562,-0.0563,-0.0588,-0.06,-0.0571,-0.0572,-0.0573,-0.0633,-0.0636,-0.0641,-0.0677,-0.067,-0.0673,-0.0674,-0.0675,-0.081,-0.0812,0,0,0,0,0,0,-0.0544,-0.0548,-0.0548,-0.0549,-0.0552,-0.0561,-0.0563,-0.0562,-0.0599,-0.0604,-0.0572,-0.0573,-0.0631,-0.0637,-0.0644,-0.0672,-0.0673,-0.0676,-0.0677,-0.0808,-0.0811,-0.0813,0,0,0,0,0,0,-0.0544,-0.0544,-0.0548,-0.0549,-0.055,-0.0561,-0.056,-0.0562,-0.0568,-0.0599,-0.0605,-0.0576,-0.0632,-0.064,-0.0688,-0.0675,-0.0677,-0.0679,-0.0806,-0.0809,-0.0812,-0.0718,0,0,0,0,0,0,-0.0544,-0.0544,-0.0545,-0.0548,-0.0549,-0.0545,-0.0559,-0.0562,-0.0567,-0.0569,-0.0604,-0.0612,-0.0633,-0.0684,-0.0691,-0.0679,-0.0681,-0.0803,-0.0807,-0.0811,-0.0719,-0.0718,-0.0717,0,0,0,0,0,-0.0544,-0.054,-0.0545,-0.0546,-0.055,-0.0545,-0.0546,-0.0556,-0.0567,-0.0565,-0.0609,-0.0611,-0.0713,-0.0688,-0.0695,-0.0683,-0.0802,-0.0806,-0.081,-0.0719,-0.0718,-0.0717,0,0,0,0,0,0,-0.0542,-0.0542,-0.0548,-0.0545,-0.0544,-0.0548,-0.0548,-0.0556,-0.0585,-0.06,-0.0628,-0.0639,-0.0693,-0.0711,-0.0682,-0.0743,-0.0761,-0.0767,-0.0689,-0.0688,-0.0687,-0.0627,-0.0684,0,0,0,0,0,-0.0542,-0.054,-0.0539,-0.0538,-0.0536,-0.0543,-0.0545,-0.0554,-0.0577,-0.0589,-0.0626,-0.0674,-0.0716,-0.0718,-0.0779,-0.0784,-0.0811,-0.0792,-0.079,-0.0788,-0.0752,-0.0826,-0.0826,-0.0827,-0.0827,-0.0827,0,0,-0.0541,-0.0541,-0.0541,-0.0538,-0.054,-0.0547,-0.0546,-0.055,-0.0561,-0.0596,-0.0641,-0.0688,-0.0731,-0.0763,-0.0783,-0.0765,-0.0803,-0.0794,-0.0791,-0.0755,-0.083,-0.0829,-0.0829,-0.083,-0.083,-0.0829,0,0,-0.0536,-0.0538,-0.0533,-0.054,-0.0545,-0.0549,-0.0549,-0.0567,-0.0576,-0.06,-0.066,-0.0698,-0.0737,-0.0773,-0.0787,-0.0817,-0.0824,-0.0835,-0.0733,-0.0805,-0.0804,-0.0803,-0.0821,-0.0822,-0.0797,-0.0796,-0.0796,0,-0.054,-0.0535,-0.0531,-0.0538,-0.054,-0.055,-0.0551,-0.0564,-0.0604,-0.0608,-0.0609,-0.0699,-0.0738,-0.0768,-0.0756,-0.0808,-0.0823,-0.072,-0.0797,-0.0797,-0.0798,-0.0816,-0.0819,-0.0792,-0.0793,-0.0793,-0.0794,0,-0.0532,-0.054,-0.0538,-0.055,-0.0549,-0.0554,-0.0565,-0.0579,-0.058,-0.0593,-0.0629,-0.0677,-0.0702,-0.0732,-0.0719,-0.0746,-0.0748,-0.0812,-0.0781,-0.0791,-0.0811,-0.0815,-0.0787,-0.0788,-0.0789,-0.079,0,0,-0.0512,-0.0528,-0.0531,-0.0537,-0.0557,-0.0552,-0.0564,-0.0562,-0.0575,-0.0587,-0.0595,-0.062,-0.0618,-0.0636,-0.0665,-0.0683,-0.0688,-0.0695,-0.0701,-0.0673,-0.0788,-0.0645,-0.0636,-0.0748,-0.0749,-0.075,-0.0792,0,-0.0507,-0.0515,-0.0522,-0.0535,-0.0536,-0.0546,-0.0554,-0.0563,-0.0567,-0.0597,-0.06,-0.0631,-0.0592,-0.0586,-0.0596,-0.0705,-0.0696,-0.0666,-0.0815,-0.0818,-0.0659,-0.0636,-0.0752,-0.0796,-0.0797,-0.0798,-0.0798,0,-0.0491,-0.0501,-0.0505,-0.0518,-0.0517,-0.0524,-0.0524,-0.0533,-0.0563,-0.0559,-0.0548,-0.0578,-0.0577,-0.0572,-0.0647,-0.0618,-0.0653,-0.0719,-0.0725,-0.0615,-0.0681,-0.0796,-0.0807,-0.0806,-0.0805,-0.0805,-0.0804,0,-0.0464,-0.0482,-0.048,-0.0492,-0.0515,-0.05,-0.0492,-0.0512,-0.052,-0.0528,-0.0535,-0.0556,-0.0564,-0.0619,-0.0655,-0.0655,-0.0766,-0.0825,-0.0726,-0.0717,-0.0875,-0.0876,-0.0868,-0.0868,-0.0868,-0.0868,-0.0868,0,-0.0443,-0.0454,-0.0465,-0.0477,-0.047,-0.0469,-0.0465,-0.0465,-0.0485,-0.0501,-0.0494,-0.0507,-0.0569,-0.0624,-0.0668,-0.0668,-0.0771,-0.0671,-0.0711,-0.0837,-0.0833,-0.0877,-0.0877,-0.0869,-0.0869,-0.0869,-0.0869,0,-0.0424,-0.0435,-0.0454,-0.0468,-0.0464,-0.045,-0.0439,-0.045,-0.0443,-0.0467,-0.0452,-0.0478,-0.049,-0.0558,-0.0674,-0.0665,-0.0727,-0.0708,-0.0783,-0.0834,-0.0624,-0.0621,-0.0599,-0.0594,-0.0589,-0.0586,-0.0583,0,-0.0411,-0.0418,-0.0455,-0.0457,-0.046,-0.0437,-0.0435,-0.0422,-0.0437,-0.0442,-0.0466,-0.0453,-0.0456,-0.0496,-0.0565,-0.0614,-0.0613,-0.0636,-0.063,-0.0551,-0.0594,-0.0597,-0.0598,-0.0576,-0.0575,-0.0574,-0.0573,0,-0.0397,-0.0424,-0.0444,-0.0458,-0.0452,-0.0457,-0.0442,-0.0445,-0.0434,-0.0446,-0.0415,-0.0388,-0.0394,-0.0418,-0.0425,-0.0485,-0.0626,-0.0593,-0.0602,-0.0597,-0.0525,-0.0572,-0.0578,-0.0559,-0.0561,-0.0562,-0.0563,0,-0.0395,-0.0402,-0.0429,-0.0434,-0.0453,-0.0461,-0.0456,-0.0434,-0.0424,-0.0416,-0.0405,-0.0388,-0.0387,-0.0351,-0.0395,-0.0382,-0.038,-0.0401,-0.0421,-0.0437,-0.0358,-0.0242,-0.0188,0,0,0,0,0,-0.0369,-0.0364,-0.0388,-0.0392,-0.043,-0.0439,-0.0464,-0.0464,-0.0455,-0.0409,-0.0389,-0.0366,-0.031,-0.032,-0.0273,-0.0347,-0.0416,-0.0294,-0.046,-0.0479,-0.0496,-0.0414,0,0,0,0,0,0,-0.0341,-0.036,-0.0372,-0.0369,-0.0374,-0.04,-0.0426,-0.0431,-0.0402,-0.0383,-0.0359,-0.0321,-0.0294,-0.0309,-0.0252,-0.0254,-0.0347,-0.0277,-0.0275,-0.047,-0.0485,-0.0498,-0.042,0,0,0,0,0]},{"header":{"parameterUnit":"m.s-1","parameterCategory":2,"la1":30.2991,"la2":30.254,"lo1":-89.0895,"lo2":-89.0444,"dy":0.0017,"dx":0.0017,"nx":28,"ny":28,"refTime":"2023-07-18T21:00:00:Z","depth":"4","parameterNumber":3,"parameterNumberName":"V-component_of_CURRENTS"},"data":[0,0,0,0,0,0,0,0,0,0,0,0,0,0,0,0,0,0,0,0,0,0,0,0,0,0,0,0,0,0,0,0,0,0,0,0,0,0,0,0,0,0,0,0,0,0,0,0,0,0,0,0,0,0,0,0,0,0,0.0292,0.0292,0,0.0235,0.0234,0.0233,0.023,0.0231,0.0232,0.0233,0.0192,0.019,0.0188,0,0,0,0,0,0,0,0,0,0,0,0,0,0.0318,0.0318,0.0292,0.0292,0.0292,0.0235,0.0234,0.0233,0.023,0.0231,0.0233,0.0234,0.0193,0.019,0.0188,0,0,0,0,0,0,0,0,0,0,0,0,0,0.0285,0.0317,0.0293,0.0286,0.0286,0.0235,0.0234,0.0232,0.023,0.0232,0.0233,0.0234,0.0194,0.0191,0.0188,0.0138,0,0,0.0178,0.0177,0,0,0,0,0,0,0,0,0.0287,0.0283,0.0288,0.0287,0.0286,0.0245,0.0228,0.0203,0.023,0.0247,0.0233,0.0235,0.0213,0.0208,0.0188,0.0136,0.0134,0.0178,0.0176,0.0175,0.0174,0,0,0,0,0,0,0,0.0289,0.0285,0.0266,0.0287,0.0286,0.0259,0.0256,0.0222,0.0219,0.0246,0.0246,0.0245,0.0212,0.0191,0.0187,0.0134,0.0178,0.0175,0.0173,0.0172,0.0101,0.0101,0,0,0,0,0,0,0.0306,0.0288,0.0268,0.0265,0.0294,0.0257,0.0254,0.0253,0.0219,0.0217,0.0244,0.0246,0.0196,0.0191,0.0186,0.0195,0.0175,0.0172,0.017,0.0101,0.0101,0.0101,0,0,0,0,0,0,0.0307,0.0305,0.027,0.0278,0.0272,0.0256,0.0255,0.0251,0.0242,0.0219,0.0216,0.024,0.0197,0.019,0.0167,0.0191,0.0171,0.0168,0.0101,0.0101,0.0101,0.0168,0,0,0,0,0,0,0.0308,0.0305,0.0308,0.0279,0.0273,0.0238,0.0253,0.0249,0.024,0.0242,0.0214,0.0211,0.0197,0.0171,0.0164,0.0186,0.0165,0.0101,0.0101,0.0101,0.0166,0.017,0.0174,0,0,0,0,0,0.0309,0.0303,0.0309,0.0307,0.0278,0.0237,0.023,0.0222,0.0239,0.0221,0.0216,0.0213,0.0166,0.0168,0.0159,0.0182,0.0101,0.0101,0.0101,0.0164,0.0169,0.0174,0,0,0,0,0,0,0.031,0.0302,0.0308,0.0299,0.0273,0.0239,0.0226,0.0223,0.0202,0.0216,0.0199,0.0194,0.0197,0.0163,0.0166,0.0159,0.0137,0.0136,0.0189,0.0193,0.0197,0.02,0.0163,0,0,0,0,0,0.0315,0.0314,0.0291,0.0285,0.0274,0.0253,0.0238,0.0233,0.0213,0.0206,0.0212,0.0201,0.0183,0.0168,0.0158,0.013,0.0134,0.0141,0.0145,0.0149,0.0144,0.0143,0.0147,0.0101,0.0101,0.0101,0,0,0.0316,0.031,0.0311,0.0286,0.0268,0.0255,0.0246,0.0227,0.0228,0.0204,0.0227,0.0223,0.0182,0.0178,0.0173,0.0153,0.0177,0.0149,0.0153,0.0145,0.0144,0.0148,0.0152,0.0101,0.0101,0.0101,0,0,0.0304,0.031,0.0299,0.0287,0.0268,0.0255,0.0254,0.0243,0.0247,0.0253,0.0249,0.0247,0.0236,0.0209,0.0188,0.0194,0.0211,0.0205,0.0213,0.0213,0.0217,0.0221,0.0292,0.0301,0.0192,0.0192,0.0192,0,0.0307,0.0305,0.0286,0.0275,0.0281,0.0262,0.0259,0.0245,0.0241,0.0241,0.0276,0.0267,0.0249,0.0203,0.0223,0.0206,0.0234,0.0203,0.0221,0.0224,0.0226,0.0297,0.0306,0.0195,0.0195,0.0194,0.0194,0,0.0287,0.0298,0.029,0.0288,0.0274,0.0273,0.0261,0.0264,0.0297,0.0295,0.0303,0.029,0.0282,0.0281,0.0259,0.0255,0.0286,0.0243,0.0215,0.0235,0.0309,0.0318,0.02,0.0198,0.0197,0.0197,0,0,0.0283,0.0282,0.0288,0.0299,0.0298,0.0282,0.0283,0.0268,0.0267,0.0299,0.0305,0.03,0.0316,0.0292,0.0271,0.0261,0.0335,0.0269,0.0267,0.0353,0.0403,0.0302,0.0302,0.0303,0.0304,0.0304,0.047,0,0.0287,0.029,0.0288,0.0304,0.0308,0.0306,0.0305,0.0288,0.0297,0.0302,0.0284,0.0305,0.0308,0.0331,0.0319,0.0305,0.035,0.0298,0.0356,0.0359,0.0276,0.0304,0.0305,0.0476,0.0478,0.0479,0.048,0,0.0275,0.029,0.0326,0.0327,0.0327,0.0358,0.0359,0.0347,0.0318,0.0328,0.033,0.0329,0.0322,0.0339,0.0361,0.0334,0.0398,0.0403,0.0409,0.0286,0.027,0.0433,0.0496,0.0494,0.0493,0.0492,0.0491,0,0.0292,0.0305,0.0353,0.0367,0.0375,0.0413,0.0417,0.0392,0.0371,0.0376,0.038,0.036,0.0386,0.0408,0.0419,0.0421,0.0444,0.0444,0.0434,0.0432,0.0448,0.0441,0.0516,0.0516,0.0515,0.0515,0.0514,0,0.0296,0.0324,0.0395,0.0433,0.0482,0.0471,0.05,0.0489,0.0463,0.0426,0.043,0.0385,0.0408,0.04,0.0431,0.0432,0.0471,0.0448,0.0447,0.0481,0.0475,0.0458,0.045,0.0521,0.052,0.0519,0.0517,0,0.0294,0.034,0.0408,0.0482,0.0509,0.0561,0.0569,0.0549,0.0548,0.0507,0.0524,0.0446,0.0415,0.0421,0.0445,0.0453,0.0458,0.0475,0.0549,0.055,0.0476,0.0469,0.0513,0.051,0.0508,0.0506,0.0504,0,0.0281,0.033,0.047,0.0528,0.0595,0.0649,0.0655,0.0628,0.0579,0.0502,0.0458,0.0437,0.0387,0.0352,0.0342,0.041,0.0412,0.0491,0.0457,0.047,0.0467,0.0463,0.0459,0.0501,0.05,0.05,0.0499,0,0.026,0.0357,0.0428,0.0578,0.0656,0.066,0.0668,0.0609,0.0536,0.0548,0.042,0.0391,0.0331,0.0288,0.0345,0.0374,0.0451,0.0469,0.0476,0.0444,0.0457,0.0455,0.0453,0.0491,0.0492,0.0493,0.0494,0,0.0266,0.0325,0.0464,0.0584,0.0676,0.0658,0.0637,0.0564,0.0511,0.0416,0.0358,0.0307,0.0294,0.0267,0.0272,0.0308,0.0337,0.0404,0.0415,0.0424,0.03,0.0297,0.0288,0,0,0,0,0,0.0256,0.0311,0.0421,0.0543,0.064,0.0689,0.0624,0.0566,0.0478,0.0405,0.0387,0.0322,0.0293,0.0228,0.0252,0.0227,0.0337,0.0257,0.042,0.0449,0.0457,0.031,0,0,0,0,0,0,0.024,0.0338,0.0404,0.0501,0.0578,0.0629,0.0592,0.0521,0.0439,0.0378,0.0333,0.0378,0.0314,0.0317,0.0278,0.0277,0.039,0.0254,0.0255,0.0443,0.0452,0.0459,0.0311,0,0,0,0,0]}]]